Regional Weather Roundup
Issued by NWS

Home | Current Version | Previous Version | Text Only | Print | Product List | Glossary Off
Versions: 1 2 3 4 5 6 7 8 9 10 11 12 13 14 15 16 17 18 19 20 21 22 23 24 25 26 27 28 29 30 31 32 33 34 35 36 37 38 39 40 41 42 43 44 45 46 47 48 49 50

000
ASUS43 KLMK 270202
RWRKY
KENTUCKY REGIONAL WEATHER ROUNDUP
NATIONAL WEATHER SERVICE LOUISVILLE KY
1000 PM EDT THU MAR 26 2015

NOTE "FAIR" INDICATES FEW OR NO CLOUDS BELOW 12,000 FEET
WITH NO SIGNIFICANT WEATHER AND/OR OBSTRUCTIONS TO VISIBILITY.

KYZ001>023-026-027-061>063-070>075-270300-
WESTERN AND SOUTH CENTRAL KENTUCKY

CITY           SKY/WX    TMP DP  RH WIND       PRES   REMARKS
PADUCAH        CLEAR     41  32  70 NW3       30.05R
HENDERSON      CLEAR     39  32  75 NW3       30.04R
OWENSBORO      PTCLDY    40  35  82 NW7       30.03R
HOPKINSVILLE   CLOUDY    41  37  87 NW5       30.04R
BOWLING GREEN  CLOUDY    42  37  82 N3        30.02R
GLASGOW        NOT AVBL
$$

KYZ024-025-028>034-038-045-046-053-270300-
NORTH CENTRAL KENTUCKY

CITY           SKY/WX    TMP DP  RH WIND       PRES   REMARKS
LOUISVILLE/SDF CLOUDY    42  35  76 N6        30.00R
LOUISVILLE/LOU CLOUDY    42  35  76 CALM      30.00R
FORT KNOX      CLOUDY    38  35  87 NW1       29.98R
$$

KYZ035>037-039>044-047>052-055>060-089>105-270300-
NORTHEAST KENTUCKY

CITY           SKY/WX    TMP DP  RH WIND       PRES   REMARKS
LEXINGTON      CLOUDY    41  37  86 NW10      29.99R
COVINGTON      CLOUDY    40  32  73 NW9       29.97R WCI  34
FRANKFORT      CLOUDY    41  35  79 CALM      29.98R
$$

KYZ054-064>069-076>088-106>120-270300-
SOUTHEAST KENTUCKY

CITY           SKY/WX    TMP DP  RH WIND       PRES   REMARKS
JACKSON        LGT RAIN  42  40  92 VRB7      29.94S FOG
LONDON         LGT RAIN  43  36  76 N13G22    29.95R
SOMERSET       NOT AVBL
MIDDLESBORO    LGT RAIN  46  42  89 N13G21    29.91R
MONTICELLO     CLOUDY    42  40  93 NE6       29.99F FOG
$$



USA.gov is the U.S. government's official web portal to all federal, state and local government web resources and services.